International Virtual Aviation Organisation

Russian Federation and Kazakhstan MCD

 

Карточка аэропорта UAII

Внимание!
Информация на этой странице в стадии наполнения.
Если вы не увидели какой-то информации, или заметили неточность - пожалуйста сообщите нам!
Спасибо!
Команда RU-STAFF
Название аэропортаШымкент
Название аэропорта (англ.)Shymkent
Превышение1389 ft. (423.4 m.)
Координаты42°21.348', 69°28.734'
Высота перехода5000
Эшелон переходаFL70
Коды ответчика3430-3437, 3530-3537
Зона ОрВДШымкент РПИ (UAII)
Данные METARUAII 091300Z 29006MPS 9999 SCT050CB BKN100 34/05 Q1004 R28/0///70 NOSIG RMK QFE716/0955
Проноз погоды (TAF)UAII 091100Z 0912/1012 25003G08MPS 6000 SCT040CB BKN100 TX37/1010Z TN22/1001Z TEMPO 0912/0917 27008G13MPS -TSRA BKN030CB OVC100 BECMG 0917/0919 12003G08MPS
NOTAMshow/hide NOTAM
AWOS   TABLE

Информация о ВПП

ВПП Длина ВПП (м.) Покрытие Курс ВПП Частота ILS
103300Железобетон106111.7
283300Железобетон286110.3

Диспетчерские позиции




Спутниковое изображение